Regional Weather Roundup
Issued by NWS

Home | Current Version | Previous Version | Text Only | Print | Product List | Glossary Off
Versions: 1 2 3 4 5 6 7 8 9 10 11 12 13 14 15 16 17 18 19 20 21 22 23 24 25 26 27 28 29 30 31 32 33 34 35 36 37 38 39 40 41 42 43 44 45 46 47 48 49 50

386
ASUS45 KPSR 110810
RWRAZ

ARIZONA HOURLY REGIONAL WEATHER ROUNDUP
NATIONAL WEATHER SERVICE PHOENIX AZ
100 AM MST THU FEB 11 2016

NOTE: FAIR INDICATES FEW OR NO CLOUDS BELOW 12,000 FEET WITH NO
SIGNIFICANT WEATHER AND/OR OBSTRUCTIONS TO VISIBILITY.

AZZ001>003-036-110900-
NORTHWEST ARIZONA

CITY           SKY/WX    TMP DP  RH WIND       PRES   REMARKS
BULLHEAD CITY  CLEAR     57  32  38 NE7       30.18S
KINGMAN        PTCLDY    42  32  67 CALM      30.26S
$$

AZZ004>008-015-016-018-110900-
NORTH CENTRAL ARIZONA

CITY           SKY/WX    TMP DP  RH WIND       PRES   REMARKS
GRAND CANYON   PTCLDY    23  16  74 E3        30.38F
WILLIAMS       PTCLDY    28  18  64 S10       30.42F WCI  19
PRESCOTT       PTCLDY    36  21  54 S6        30.31F WCI  31
FLAGSTAFF      PTCLDY    22  17  81 NE3       30.38F
PAYSON         CLEAR     45  23  42 CALM      30.31F
PAGE           CLEAR     38  28  67 CALM      30.35S
$$

AZZ009>014-017-110900-
NORTHEAST ARIZONA

CITY           SKY/WX    TMP DP  RH WIND       PRES   REMARKS
WINSLOW        PTCLDY    28  19  69 CALM      30.34S
WINDOW ROCK    CLEAR     27   0  31 CALM      30.38S
SHOW LOW       CLEAR     27  14  59 CALM      30.36F
$$

AZZ023-110900-
GREATER PHOENIX AREA

CITY           SKY/WX    TMP DP  RH WIND       PRES   REMARKS
PHOENIX        PTCLDY    62  34  35 SW3       30.10F
BUCKEYE        CLEAR     57  25  28 NE3       30.14S
LUKE AFB       PTCLDY    58  29  33 N8        30.11S
DEER VALLEY    CLEAR     59  29  31 W5        30.12F
SCOTTSDALE     CLEAR     57  34  41 CALM      30.13F
MESA-GATEWAY   CLEAR     52  36  54 SE8       30.12F
$$

AZZ027-028-110900-
SOUTHWEST MARICOPA COUNTY AND PINAL COUNTY

CITY           SKY/WX    TMP DP  RH WIND       PRES   REMARKS
CASA GRANDE    PTCLDY    55  28  35 CALM      30.14S
$$

AZZ503-504-507>509-110900-
SOUTHEAST ARIZONA

CITY           SKY/WX    TMP DP  RH WIND       PRES   REMARKS
TUCSON         CLEAR     51  23  33 SE9       30.20F
DAVIS-MONTHAN  PTCLDY    50  22  33 SE8       30.19R
NOGALES        CLEAR     42  19  39 CALM      30.24S
SIERRA VISTA   PTCLDY    49  18  29 SW9       30.27S
DOUGLAS        PTCLDY    33  14  45 E3        30.25S
SAFFORD        CLEAR     43  22  43 S3        30.22R
$$

AZZ020-021-025-026-031-110900-
SOUTHWEST ARIZONA

CITY           SKY/WX    TMP DP  RH WIND       PRES   REMARKS
YUMA           PTCLDY    59  30  33 CALM      30.09F
$$

CAZ031-033-041-043-047-048-061-110900-
SOUTHERN CALIFORNIA

CITY           SKY/WX    TMP DP  RH WIND       PRES   REMARKS
DOWNTOWN L.A.  CLEAR     64  35  34 CALM      30.08F
L.A. AIRPORT   CLEAR     64  39  39 E3        30.09F
SAN DIEGO      PTCLDY    62  34  35 CALM      30.11S
BURBANK        CLEAR     61  33  35 N5        30.11F
ONTARIO        CLEAR     61  37  41 CALM      30.12F
RIVERSIDE      CLEAR     59  31  34 CALM      30.13S
PALM SPRINGS   CLEAR     60  30  32 N6        30.14F
EL CENTRO NAS  CLEAR     54  22  28 W10       30.11F
IMPERIAL       CLEAR     55  26  32 NW7       30.10S
BLYTHE         PTCLDY    59  24  26 N6        30.13S
NEEDLES        CLEAR     56  26  31 CALM      30.17S
$$

NVZ020-UTZ003-110900-
SOUTHERN NEVADA-UTAH

CITY           SKY/WX    TMP DP  RH WIND       PRES   REMARKS
LAS VEGAS      CLEAR     52  27  38 SW5       30.20F
SALT LAKE CITY FOG       30  28  92 NW3       30.47R VSB 1
$$

NMZ009-TXZ055-110900-
NEW MEXICO-WEST TEXAS

CITY           SKY/WX    TMP DP  RH WIND       PRES   REMARKS
ALBUQUERQUE    CLOUDY    45  21  38 N6        30.31S
EL PASO        PTCLDY    43  18  36 CALM      30.22S
$$


........................KEY........................
SKY/WX - SKY CONDITION/WEATHER
TMP    - TEMPERATURE IN FAHRENHEIT
DP     - DEW POINT IN FAHRENHEIT
RH     - RELATIVE HUMIDITY IN PERCENT
WIND   - DIRECTION AND SPEED IN MILES PER HOUR (MPH)
VRB    - VARIABLE WIND DIRECTION
PRES   - MEAN SEA LEVEL PRESSURE IN INCHES OF MERCURY
         F - FALLING PRESSURE   R - RISING PRESSURE
         S - STEADY PRESSURE
VSB    - VISIBILITY IN MILES
HX     - HEAT INDEX IN FAHRENHEIT
WCI    - WIND CHILL INDEX IN FAHRENHEIT
TC     - TEMPERATURE IN CELSIUS WHICH IS ALSO KNOWN AS
         TEMPERATURE IN CENTIGRADE
AFB    - AIR FORCE BASE
         LUKE AFB IS LUKE AIR FORCE BASE
         DAVIS-MONTHAN IS DAVIS-MONTHAN AIR FORCE BASE
NAS    - NAVAL AIR STATION
         EL CENTRO NAS IS EL CENTRO NAVAL AIR STATION
N/A    - NOT AVAILABLE





USA.gov is the U.S. government's official web portal to all federal, state and local government web resources and services.